Weather History for Nagpur Sonegaon, India

Change the Weather History Date:

Sunday, September 23, 2012

  Actual Average Record
Temperature  
Mean Temperature 82 °F -  
Max Temperature 92 °F 91 °F - ()
Min Temperature 73 °F 69 °F - ()
Cooling Degree Days 18    
Growing Degree Days 32 (Base 50)    
Moisture  
Dew Point 74 °F    
Average Humidity 76    
Maximum Humidity 100    
Minimum Humidity 42    
Precipitation  
Precipitation 0.00 in 0.12 in - ()
Sea Level Pressure  
Sea Level Pressure 29.76 in    
Wind  
Wind Speed 2 mph ()    
Max Wind Speed 9 mph    
Max Gust Speed -    
Visibility 2.9 miles    
Events      
T = Trace of Precipitation, MM = Missing Value Source: Averaged Metar Reports

Daily Weather History Graph

Daily Weather History Graph

Search for Another Location

Airport:

Trip Planner

Search our weather history database for the weather conditions in past years. The results will help you decide how hot, cold, wet, or windy it might be!

Date:

Astronomy

Sep. 23, 2012 Rise Set
Actual Time 6:02 AM IST 6:09 PM IST
Civil Twilight 5:40 AM IST 6:31 PM IST
Nautical Twilight 5:14 AM IST 6:56 PM IST
Astronomical Twilight 4:49 AM IST 7:22 PM IST
Moon 1:06 PM IST (9/23) 12:28 AM IST (9/24)
Length of Visible Light 12h 50m
Length of Day
12h 06m
First Quarter, 55% of the Moon is Illuminated
Sep 23
First Quarter
Sep 30
Full
Oct 8
Last Quarter
Oct 15
New
Oct 22
First Quarter

Hourly Weather History & Observations

Time (IST) Temp. Heat Index Dew Point Humidity Pressure Visibility Wind Dir Wind Speed Gust Speed Precip Events Conditions
12:10 AM 77.0 °F - 75.2 °F 94% 29.65 in 2.5 mi Calm Calm - N/A   Haze
1:10 AM 77.0 °F - 75.2 °F 94% 29.77 in 2.5 mi Calm Calm - N/A   Haze
2:10 AM 75.2 °F - 73.4 °F 94% 29.77 in 2.5 mi Calm Calm - N/A   Haze
2:30 AM 76 °F - 75 °F 95% 29.73 in 2 mi Calm Calm - -   Haze
3:10 AM 75.2 °F - 75.2 °F 100% 29.77 in 2.5 mi WSW 9.2 mph - N/A   Haze
5:10 AM 75.2 °F - 75.2 °F 100% 29.77 in 2.5 mi Calm Calm - N/A   Haze
5:30 AM 75 °F - 74 °F 95% 29.75 in 2 mi West 2.3 mph - -   Haze
6:10 AM 75.2 °F - 73.4 °F 94% 29.80 in 2.5 mi West 3.5 mph - N/A   Haze
7:10 AM 82.4 °F 88.2 °F 73.4 °F 74% 29.80 in 1.6 mi WSW 2.3 mph - N/A   Haze
8:30 AM 81 °F - 74 °F 75% 29.79 in 2 mi NNW 4.6 mph - -   Haze
9:10 AM 80.6 °F 85.4 °F 73.4 °F 79% 29.83 in 3.7 mi North 4.6 mph - N/A   Haze
10:10 AM 82.4 °F 89.5 °F 75.2 °F 79% 29.83 in 3.7 mi NNW 6.9 mph - N/A   Partly Cloudy
11:10 AM 87.8 °F 97.6 °F 75.2 °F 66% 29.83 in 3.7 mi NNW 5.8 mph - N/A   Partly Cloudy
11:30 AM 89 °F - 72 °F 48% 29.75 in 2 mi North 4.6 mph - -   Scattered Clouds
12:10 PM 89.6 °F 98.2 °F 73.4 °F 59% 29.80 in 3.7 mi NNW 4.6 mph - N/A   Scattered Clouds
2:10 PM 91.4 °F 100.1 °F 73.4 °F 55% 29.74 in 3.7 mi NNW 5.8 mph - N/A   Scattered Clouds
2:30 PM 92 °F - 72 °F 42% 29.68 in 2 mi NNW 5.8 mph - -   Partly Cloudy
4:10 PM 91.4 °F 96.8 °F 69.8 °F 49% - 3.7 mi SSW 2.3 mph - N/A   Partly Cloudy
5:10 PM 89.6 °F 94.7 °F 69.8 °F 52% 29.71 in 3.7 mi Calm Calm - N/A   Partly Cloudy
5:30 PM 87 °F - 79 °F 70% 29.68 in 2 mi Calm Calm - -   Partly Cloudy
6:10 PM 87.8 °F 95.6 °F 73.4 °F 62% 29.74 in 3.7 mi Calm Calm - N/A   Scattered Clouds
7:10 PM 84.2 °F 92.3 °F 75.2 °F 74% 29.74 in 3.7 mi SW 3.5 mph - N/A   Partly Cloudy
8:10 PM 84.2 °F 92.3 °F 75.2 °F 74% 29.77 in 3.7 mi SW 4.6 mph - N/A   Partly Cloudy
8:30 PM 79 °F - 73 °F 77% 29.75 in 2 mi NW 2.3 mph - -   Scattered Clouds
9:10 PM 78.8 °F - 73.4 °F 83% 29.80 in 3.7 mi South 2.3 mph - N/A   Partly Cloudy
10:10 PM 78.8 °F - 73.4 °F 83% 29.80 in 3.7 mi Calm Calm - N/A   Scattered Clouds
11:10 PM 78.8 °F - 73.4 °F 83% 29.80 in 3.1 mi West 2.3 mph - N/A   Haze
11:30 PM 76 °F - 74 °F 91% 29.76 in 2 mi Calm Calm - -   Haze